Wind_Speed
32 31 31 32 31 31 32 31 30 27 26 25 25 26 28 30 34 39 40 38 38 38 36 34 31 29 27 28 28 27 27 25 23 21 20 20 21 21 21 20 20 19 17
33 33 31 28 27 27 26 24 22 22 22 22 23 25 26 27 27 29 34 35 35 37 38 37 36 34 31 31 31 29 28 27 25 23 22 21 21 20 21 21 22 22 20
30 30 28 25 24 24 23 22 21 21 22 23 24 25 25 26 26 25 26 27 28 29 33 37 39 40 38 35 33 32 31 30 28 26 24 24 24 24 24 23 23 23 22
27 27 26 25 24 23 23 22 22 22 22 22 23 25 25 26 27 28 28 28 29 29 30 34 38 41 43 40 37 35 34 33 32 31 28 27 26 27 27 27 27 26 25
25 26 27 26 25 24 23 22 19 19 19 21 22 24 25 25 27 29 30 30 31 33 34 34 35 39 43 43 41 39 38 36 35 35 33 31 29 29 28 29 31 31 29
23 23 24 23 22 21 20 17 16 17 19 21 23 25 25 26 26 29 31 31 30 32 35 35 35 36 39 43 43 42 41 40 39 37 36 34 34 33 33 33 33 34 34
22 21 20 17 17 17 16 16 16 17 19 21 23 24 25 26 27 29 32 32 30 30 32 33 34 33 34 39 42 43 44 43 41 39 37 36 37 37 37 36 37 37 36
21 20 18 17 17 17 16 16 16 17 20 22 24 24 23 24 27 29 31 33 32 32 31 30 32 31 31 35 39 43 44 43 41 39 39 38 39 40 38 37 37 37 37
22 20 20 20 19 19 19 18 17 18 20 23 25 25 23 23 26 28 30 32 33 33 32 30 29 30 30 32 33 36 38 37 37 38 38 38 39 38 37 36 36 37 36
22 22 22 22 22 23 23 22 20 19 20 23 25 26 26 25 24 26 30 31 33 33 32 30 27 26 27 27 27 27 29 32 35 37 37 37 36 36 36 35 36 36 35
24 24 25 26 27 28 27 25 24 22 22 23 25 26 26 26 25 25 26 30 32 32 31 29 26 24 23 24 25 25 26 27 29 32 34 34 34 34 33 32 32 34 35
27 26 27 29 31 33 33 30 27 25 24 24 25 26 26 25 24 24 24 27 30 31 30 29 27 26 25 26 26 26 27 27 29 31 32 33 34 33 32 31 31 32 33
33 32 31 32 33 34 34 32 30 28 27 26 25 25 25 24 24 24 25 26 28 30 30 30 29 30 28 26 26 26 27 28 28 28 30 32 33 33 34 33 31 31 30
38 38 37 37 36 35 34 34 32 30 29 27 26 25 24 24 24 24 25 26 28 30 31 31 31 31 30 29 27 26 27 27 28 29 31 33 34 33 34 33 31 30 29
42 42 40 38 38 38 37 35 34 33 30 28 27 26 24 23 23 23 23 25 26 28 31 32 31 30 30 29 28 26 26 26 28 31 32 33 35 35 34 33 32 31 31
50 47 44 40 39 39 39 38 36 34 31 29 28 27 24 22 22 22 22 22 24 26 29 32 31 30 29 29 28 28 26 26 28 30 32 34 34 34 34 34 34 33 32
58 54 50 48 46 43 41 40 37 35 33 31 31 29 26 23 21 20 21 21 21 23 25 28 30 30 30 29 28 28 28 29 30 31 31 31 30 30 29 29 30 30 29
63 59 54 50 51 49 44 41 38 36 33 31 30 30 27 24 21 20 20 20 20 21 23 25 28 29 30 30 30 31 31 31 30 28 26 25 24 23 23 23 23 23 24
68 64 58 52 51 51 48 44 41 38 34 31 29 29 27 24 22 21 20 20 19 19 21 25 27 30 31 32 32 32 32 31 28 26 25 25 25 24 23 23 21 21 21
72 69 64 59 54 53 53 50 46 43 37 32 30 29 27 25 23 22 20 19 18 18 19 23 27 30 32 33 33 32 31 29 28 27 27 26 25 25 23 21 21 20 19
74 72 69 65 61 59 60 58 53 49 42 35 32 31 30 27 25 23 21 19 18 18 18 21 24 28 31 32 31 30 30 29 27 25 26 26 24 22 20 18 17 16 16
81 78 77 74 68 62 61 62 58 53 47 40 35 33 32 30 27 24 23 21 19 18 19 20 21 22 25 27 28 31 32 29 26 24 24 22 20 18 16 14 15 16 16
67 72 76 75 70 65 60 57 57 56 52 45 40 36 33 32 29 26 24 23 20 18 18 19 19 19 20 23 26 28 28 28 25 22 19 17 15 14 13 14 15 16 17
37 45 55 63 65 66 64 57 52 53 53 49 44 40 35 32 30 27 25 24 21 17 16 16 17 17 19 22 23 24 25 24 22 19 16 14 13 12 13 14 15 14 14
28 28 31 38 49 57 63 64 59 54 52 50 47 42 37 34 31 28 27 25 22 18 15 14 15 16 20 22 22 21 21 21 19 17 15 13 13 12 13 13 12 12 12
30 28 26 26 29 39 52 60 63 60 57 54 51 47 42 38 34 31 29 27 24 21 18 16 15 17 20 23 23 21 19 17 16 14 14 13 13 12 11 11 11 11 10
Wind_Direction
290 286 282 281 282 283 284 285 288 291 292 295 294 286 282 284 278 266 264 265 265 267 266 261 262 264 263 263 264 264 261 258 256 257 256 254 253 254 254 256 259 260 260
294 295 293 289 289 288 289 292 292 287 286 286 287 285 283 285 286 275 269 272 269 265 262 257 256 256 257 258 259 261 261 260 257 254 254 253 253 253 254 255 257 259 260
291 292 293 291 288 286 287 289 286 284 283 283 283 283 281 281 281 278 272 272 269 265 260 256 254 253 252 253 253 255 257 260 260 255 251 251 252 253 254 254 256 258 259
289 289 288 287 288 288 289 290 290 290 290 288 285 282 280 279 279 276 271 267 263 260 259 256 255 255 251 248 246 248 252 257 259 257 253 252 253 254 255 254 254 255 257
286 284 283 284 285 284 286 289 293 298 302 301 297 292 285 278 275 274 272 268 262 260 258 254 255 258 255 249 244 243 246 251 254 255 256 255 255 256 256 258 257 256 256
287 284 283 282 280 281 282 285 293 301 308 309 307 301 293 284 274 269 269 269 266 262 260 258 256 259 257 248 242 241 242 245 248 251 254 253 254 257 261 261 259 258 257
286 285 281 273 272 273 274 283 294 303 311 318 317 309 299 290 280 270 265 265 267 266 264 262 260 260 256 247 241 240 240 242 244 248 251 252 256 262 265 265 262 259 259
278 276 268 264 264 264 270 281 294 304 314 321 324 319 305 293 284 275 268 264 265 266 267 266 264 258 252 247 242 241 242 243 244 247 249 253 259 264 267 267 265 262 260
276 272 265 264 264 262 268 277 290 304 312 318 324 326 316 298 286 279 272 266 263 264 266 268 267 260 254 250 247 245 247 248 246 247 250 254 259 264 267 269 267 263 260
271 271 269 265 266 269 273 277 281 293 306 314 320 325 324 312 295 283 275 268 262 261 263 267 269 264 259 257 254 251 249 247 246 245 248 254 259 264 268 270 267 263 259
276 279 278 273 271 274 276 279 280 285 296 306 313 319 323 321 308 294 279 268 262 258 258 261 263 262 258 255 253 251 249 246 244 245 249 255 260 264 267 268 266 262 258
280 280 282 281 278 276 277 277 278 281 287 296 304 312 319 321 313 300 287 272 262 258 257 257 257 259 258 253 252 252 253 252 249 250 253 257 260 263 265 266 267 263 259
283 280 281 283 282 280 278 277 276 280 284 289 296 305 314 318 315 304 291 276 264 257 256 256 256 257 258 257 255 254 254 255 256 256 257 259 261 264 265 267 268 264 260
281 281 283 284 283 279 277 277 277 280 283 286 290 298 308 315 315 307 295 280 266 257 255 256 257 258 258 259 260 259 257 257 259 261 262 261 261 263 262 264 266 264 260
276 278 280 281 280 276 273 274 275 276 278 282 285 291 301 311 315 311 300 286 270 259 255 255 258 259 260 259 261 262 259 257 257 258 259 259 260 261 261 261 263 263 261
275 274 273 272 275 274 269 267 269 270 271 276 280 285 292 301 308 309 306 294 278 265 257 254 254 254 255 256 257 257 255 256 259 260 261 262 261 261 260 259 259 260 259
276 275 273 268 268 271 267 263 262 263 266 272 276 279 284 291 299 308 310 301 287 273 262 255 252 250 251 252 252 252 254 259 263 264 264 262 260 259 257 255 253 252 255
273 272 272 269 265 267 267 261 257 258 262 268 273 275 277 283 293 304 310 307 296 280 267 257 250 247 248 249 251 253 257 261 265 265 262 257 256 253 251 248 247 251 255
269 269 268 267 265 262 262 261 256 254 258 264 270 271 272 277 286 296 306 308 303 288 270 258 250 246 247 249 251 255 259 261 261 260 256 252 246 244 242 243 249 256 261
267 267 266 266 266 261 257 257 256 252 253 259 265 268 269 272 279 287 297 302 302 294 277 260 251 249 251 252 254 257 258 259 257 257 249 242 239 240 241 246 253 258 260
264 264 264 265 269 267 257 253 253 250 248 253 261 266 268 270 273 280 287 291 292 289 279 265 256 255 256 257 257 257 256 256 253 247 238 236 237 240 245 249 251 250 252
262 261 260 262 265 265 258 250 249 246 242 247 256 263 266 267 269 273 279 281 282 279 274 266 260 261 260 256 252 250 247 245 240 235 234 234 235 234 234 236 242 247 253
261 259 258 259 259 257 254 248 243 240 239 242 249 257 262 263 264 267 272 275 276 271 267 265 262 262 256 247 240 234 230 228 228 230 229 225 222 222 229 239 246 251 254
260 256 253 253 252 249 248 246 241 238 237 239 245 251 256 259 261 263 267 270 271 266 261 259 259 254 245 234 226 225 225 226 226 221 213 212 217 226 237 242 244 246 249
263 259 255 252 248 243 241 241 241 239 239 239 241 245 248 253 256 259 263 265 265 260 252 254 255 248 239 232 231 232 232 225 214 210 205 207 213 220 228 232 236 241 247
262 260 258 258 255 246 238 235 234 236 238 239 240 242 244 248 251 254 258 260 260 254 246 243 243 240 239 242 243 233 220 206 198 197 197 201 207 211 220 227 234 237 241
Height
5864 5864 5863 5862 5861 5860 5860 5860 5859 5859 5858 5857 5855 5855 5855 5855 5853 5854 5856 5858 5859 5860 5863 5865 5867 5869 5871 5873 5874 5876 5877 5879 5879 5880 5880 5882 5883 5884 5885 5887 5888 5889 5891
5858 5857 5856 5855 5854 5853 5853 5854 5854 5853 5851 5850 5849 5848 5848 5848 5846 5845 5847 5849 5851 5852 5854 5857 5860 5862 5864 5867 5869 5871 5872 5873 5875 5876 5876 5878 5879 5881 5882 5883 5884 5886 5887
5851 5850 5849 5849 5848 5848 5847 5848 5848 5846 5845 5844 5843 5842 5841 5841 5840 5839 5840 5841 5843 5845 5846 5848 5851 5854 5856 5858 5861 5864 5867 5868 5869 5870 5871 5873 5875 5877 5878 5879 5881 5882 5883
5845 5844 5844 5843 5843 5842 5842 5842 5841 5840 5839 5838 5837 5835 5835 5834 5833 5833 5833 5834 5835 5837 5839 5840 5842 5844 5846 5849 5852 5856 5859 5862 5863 5865 5866 5867 5870 5872 5873 5874 5876 5878 5879
5839 5838 5838 5838 5838 5837 5836 5836 5835 5834 5833 5831 5830 5829 5828 5827 5827 5826 5826 5826 5828 5829 5830 5832 5834 5835 5837 5839 5843 5847 5851 5854 5857 5858 5860 5862 5863 5865 5866 5869 5871 5873 5875
5833 5833 5832 5832 5832 5831 5831 5830 5830 5829 5827 5825 5823 5821 5820 5819 5819 5819 5819 5819 5820 5821 5822 5823 5825 5826 5827 5829 5833 5838 5842 5846 5849 5851 5853 5855 5856 5858 5861 5863 5864 5867 5869
5828 5828 5828 5828 5827 5826 5826 5825 5824 5823 5821 5819 5817 5815 5813 5811 5811 5811 5811 5812 5813 5814 5814 5815 5815 5817 5817 5819 5823 5828 5833 5837 5841 5844 5846 5847 5849 5851 5853 5855 5857 5860 5862
5823 5823 5823 5823 5822 5822 5821 5820 5819 5817 5815 5812 5811 5809 5808 5806 5803 5803 5803 5805 5806 5806 5807 5808 5808 5809 5810 5812 5815 5819 5823 5828 5832 5835 5838 5840 5842 5843 5845 5847 5850 5852 5854
5818 5818 5818 5818 5817 5817 5816 5815 5814 5812 5810 5807 5804 5803 5801 5800 5797 5796 5795 5797 5798 5799 5799 5800 5801 5801 5803 5805 5807 5810 5815 5819 5823 5826 5829 5832 5834 5835 5837 5839 5841 5843 5845
5813 5813 5813 5813 5812 5812 5812 5810 5809 5807 5805 5803 5799 5796 5794 5792 5791 5790 5788 5788 5790 5791 5792 5793 5794 5795 5796 5798 5800 5803 5807 5810 5814 5817 5820 5823 5825 5827 5829 5830 5831 5833 5835
5807 5807 5807 5807 5807 5807 5806 5805 5803 5801 5799 5797 5794 5791 5788 5785 5782 5781 5781 5780 5781 5783 5784 5786 5788 5789 5790 5791 5794 5797 5800 5803 5805 5809 5812 5814 5817 5819 5820 5822 5823 5824 5826
5800 5801 5801 5801 5801 5800 5800 5798 5797 5795 5792 5790 5787 5785 5782 5779 5776 5774 5773 5773 5773 5775 5777 5779 5781 5782 5783 5785 5787 5790 5793 5796 5798 5802 5804 5807 5808 5810 5812 5814 5815 5816 5817
5790 5792 5793 5793 5792 5792 5791 5790 5790 5788 5786 5783 5781 5778 5775 5772 5769 5767 5766 5766 5766 5767 5769 5771 5773 5775 5776 5778 5780 5783 5786 5788 5791 5794 5797 5799 5800 5801 5803 5805 5807 5808 5809
5781 5782 5783 5783 5783 5783 5782 5782 5781 5780 5779 5777 5774 5771 5769 5765 5763 5761 5759 5758 5759 5760 5761 5763 5765 5767 5769 5772 5774 5777 5779 5782 5784 5786 5789 5791 5793 5794 5796 5798 5799 5800 5802
5771 5771 5773 5773 5772 5773 5773 5773 5773 5772 5771 5770 5767 5765 5762 5759 5757 5755 5752 5750 5751 5752 5754 5755 5757 5760 5762 5765 5768 5770 5772 5774 5776 5779 5781 5782 5784 5786 5788 5790 5792 5793 5795
5758 5760 5761 5762 5762 5762 5762 5763 5764 5764 5763 5762 5760 5758 5756 5754 5751 5748 5746 5744 5743 5744 5746 5747 5749 5752 5755 5758 5761 5763 5764 5766 5768 5770 5772 5774 5776 5778 5780 5782 5784 5785 5787
5741 5744 5747 5750 5751 5751 5751 5752 5753 5754 5755 5754 5753 5751 5749 5747 5745 5742 5739 5737 5735 5735 5737 5739 5741 5743 5746 5749 5752 5755 5757 5759 5760 5762 5764 5765 5767 5769 5771 5773 5775 5777 5779
5724 5726 5730 5733 5736 5739 5740 5741 5743 5744 5745 5745 5744 5743 5741 5740 5738 5735 5732 5730 5728 5728 5729 5730 5733 5735 5738 5741 5744 5746 5748 5750 5752 5753 5754 5757 5759 5762 5764 5766 5768 5770 5772
5704 5707 5711 5715 5719 5723 5727 5729 5731 5733 5735 5736 5735 5734 5733 5733 5731 5729 5726 5724 5722 5721 5721 5723 5725 5728 5730 5732 5735 5737 5739 5742 5744 5745 5748 5750 5753 5756 5759 5761 5763 5764 5765
5684 5688 5692 5696 5701 5706 5711 5715 5718 5721 5724 5726 5726 5726 5725 5725 5724 5722 5720 5718 5716 5715 5715 5716 5718 5720 5722 5725 5727 5729 5731 5734 5737 5739 5741 5744 5747 5750 5753 5755 5756 5757 5758
5663 5667 5670 5675 5681 5687 5693 5698 5703 5708 5712 5715 5716 5717 5717 5717 5717 5716 5714 5713 5711 5710 5710 5710 5712 5714 5715 5717 5720 5722 5724 5727 5729 5732 5735 5738 5741 5744 5746 5748 5750 5752 5753
5639 5644 5648 5653 5660 5666 5673 5679 5686 5693 5698 5703 5705 5707 5708 5708 5709 5710 5709 5707 5706 5704 5704 5705 5707 5708 5709 5710 5712 5715 5717 5720 5723 5727 5729 5732 5736 5739 5741 5743 5745 5747 5749
5613 5618 5624 5630 5638 5647 5654 5661 5667 5675 5682 5689 5693 5696 5698 5700 5701 5703 5703 5702 5700 5698 5699 5700 5701 5703 5704 5705 5707 5709 5711 5715 5719 5722 5725 5728 5731 5734 5737 5739 5741 5743 5744
5594 5597 5600 5605 5613 5623 5634 5643 5650 5657 5665 5673 5680 5685 5688 5690 5692 5695 5696 5696 5695 5693 5693 5695 5697 5699 5700 5702 5704 5706 5709 5711 5715 5718 5721 5724 5728 5731 5734 5736 5738 5739 5740
5583 5584 5585 5587 5592 5600 5611 5622 5632 5640 5649 5658 5665 5672 5677 5680 5683 5686 5689 5690 5690 5689 5689 5690 5693 5695 5697 5699 5701 5704 5706 5708 5711 5715 5718 5722 5725 5728 5731 5733 5735 5736 5736
5571 5573 5575 5577 5579 5583 5590 5600 5612 5623 5633 5642 5651 5658 5665 5670 5674 5677 5680 5683 5684 5684 5685 5686 5688 5691 5694 5696 5698 5700 5703 5706 5709 5713 5716 5720 5723 5726 5728 5730 5732 5732 5733